Вернуться в каталог

NAVSTAR 80

USA 309

АктивенНавигацияHEO
NORAD 46826·PAYLOAD·🇺🇸 United States

Запущен Nov 5, 2020 с Cape Canaveral Space Force Station

Loading…

Ближайшие Пролёты (ближайшие 24 часа)

TLE

СвежийSource: CelesTrak SupGP

Эпоха: Sep 16, 2026, 16:44 UTC

1 46826C 20078A   26259.69756944  .00000000  00000+0  00000+0 0  2594
2 46826  53.9676 207.0702 0076153 208.4049 289.8628  2.00565297    11

Отслеживайте NAVSTAR 80 в реальном времени с AllMySat

Download on the App Store